Location: Aalen
(48.8330°N, 10.1000°E)
Time: 19:08:37
(UTC+02:00)

Transit 4A - Pass Details

Date: 09 August 2021
Orbit: 871 x 974 km, 66.8° (Epoch: 16 September)

Event Time Altitude Azimuth Distance (km) Brightness Sun altitude
Rises 01:46:11 0° 263° (W) 3,471 10.8 -25.2°
Reaches altitude 10° 01:49:12 10° 277° (W) 2,528 10.2 -25.1°
Maximum altitude 01:53:47 23° 329° (NNW) 1,763 9.9 -25.0°
Drops below altitude 10° 01:58:23 10° 22° (NNE) 2,531 11.2 -24.9°
Sets 02:01:25 0° 36° (NE) 3,478 11.9 -24.8°
